Weather in Pavlovsk

Russia / Saint-Petersburg and Leningrad Oblast     59°41′11″N   30°25′53″E
temp.,
°C
wind,
m/s
gust,
m/s
humid.,
%
clouds,
%
prec.,
mm/h
press.,
hPa
HPBL,
m
17 may, mon
mon1700:00+10w00745 0.0 101210
03:00+10se22845 0.0 101217
06:00+11se269228 0.0 1012154
09:00+18se466741 0.0 1012487
12:00+21se5753100 0.0 10121275
15:00+23se5846100 0.0 10102185
18:00+22ese4854100 0.0 1008830
21:00+18ese41369100 0.3 1006475
18 may, tue
tue1800:00+16se51487100 2.1 1005584
03:00+15e389698 4.6 1004241
06:00+16se3119642 0.2 1004423
09:00+19sse4783100 0.3 1004638
12:00+23sse5867100 0.0 10041194
15:00+24s586097 0.1 10041515
18:00+22ssw1475100 1.8 1002424
21:00+15wnw1298100 9.7 100486
19 may, wed
wed1900:00+15sse3598100 3.2 1005122
03:00+15e389679 3.4 1003148
06:00+15ese5149037 0.0 1001434
09:00+18sse6118638 0.1 1002912
12:00+22sse7126123 0.2 10021671
15:00+23s7126071 1.0 10031568
18:00+21s5116696 0.2 10021351
21:00+17sse3787100 0.9 1004198
20 may, thu
thu2000:00+15ssw24969 0.0 1005109
03:00+13nw249699 0.0 1006165
06:00+11wnw3490100 0.0 1008295
09:00+12nw3381100 0.0 1009429
12:00+15nw4465100 0.0 1009922
15:00+15nw5659100 0.0 1009870
18:00+11nw4879100 0.1 1007304
21:00+10nne3897100 8.3 1007370
21 may, fri
fri2100:00+10nnw41096100 1.8 1005580
03:00+10n51392100 1.9 1003607
06:00+10n41195100 4.3 1001583
09:00+10n3697100 4.8 1000473
12:00+10nnw2397100 0.4 999364
15:00+11nw4595100 0.6 999506
18:00+9nw5896100 0.2 1000595
21:00+8wnw51096100 1.4 1001595